Regional Weather Roundup
Issued by NWS

Home | Current Version | Previous Version | Text Only | Print | Product List | Glossary Off
Versions: 1 2 3 4 5 6 7 8 9 10 11 12 13 14 15 16 17 18 19 20 21 22 23 24 25 26 27 28 29 30 31 32 33 34 35 36 37 38 39 40 41 42 43 44 45 46 47 48 49 50

000
ASUS45 KSLC 022110
RWRUT

UTAH REGIONAL WEATHER ROUNDUP
NATIONAL WEATHER SERVICE SALT LAKE CITY UT
300 PM MDT WED SEP 02 2015

UTZ001>011-023>025-022200-

NORTHERN UTAH

CITY           SKY/WX    TMP DP  RH WIND       PRES   REMARKS
BRIGHAM CITY     N/A     88  32  13 SW13G24   29.93F
HILL AFB       MOSUNNY   88  45  22 SW16G26   29.97F
LOGAN            N/A     88  43  20 S20G29    29.94F
OGDEN            N/A     89  44  20 S16G22    29.94F
PROVO AIRPORT  MOSUNNY   88  50  27 SW14      29.98F
SALT LAKE CITY   N/A     90  42  18 S24G31    29.92F
VERNAL           N/A     83  41  22 SW7G20    30.06F
WENDOVER         N/A     91  36  14 SW12G24   29.89F
HEBER CITY       N/A     84  37  18 SW17G30   30.06F
WEST JORDAN    SUNNY     90  43  19 S18G30    29.97F

$$

UTZ012>022-026-027-022200-

SOUTHERN/CENTRAL UTAH

CITY           SKY/WX    TMP DP  RH WIND       PRES   REMARKS
BLANDING         N/A     83  43  24 SW8G18    30.23F
BRYCE CANYON     N/A     73  41  31 SW10G22   30.28F
CEDAR CITY       N/A     83  35  18 SW22G32   30.10F
DELTA            N/A     89  37  16 SW22G36   30.00F
HANKSVILLE       N/A     90  37  15 S8G14     30.03F
MILFORD          N/A     88  42  20 SW23G36   30.03F
MOAB/CYNLANDS    N/A     89  47  23 SW12G18   30.02F
PRICE            N/A     81  39  22 VRB3      30.11F
ST GEORGE        N/A     97  45  16 S16G26    29.94F HX  93
KANAB            N/A     84  52  32 S10G21    30.15F

$$

REGIONAL REPORTS     COLORADO/ARIZONA

CITY           SKY/WX    TMP DP  RH WIND       PRES   REMARKS
CRAIG, CO      LGT RAIN  68  48  48 S15G38    30.19R
GRAND JUNCTION   N/A     84  49  29 W8        30.06F
RIFLE            N/A     80  50  34 S10       30.11F
MONTROSE         N/A     84  46  26 SE10      30.14F
CORTEZ           N/A     86  47  25 S13G22    30.16F
PAGE, AZ         N/A     91  46  21 N10       30.03F
GRAND CANYON     N/A     80  44  27 SW14G20   30.24F
KINGMAN          N/A     92  41  17 SW22G32   30.01F
FLAGSTAFF        N/A     74  48  39 SW16      30.29F

$$

REGIONAL REPORTS    NEVADA/IDAHO/WYOMING

CITY           SKY/WX    TMP DP  RH WIND       PRES   REMARKS
LAS VEGAS, NV  PTSUNNY   99  46  16 SE13G23   29.82F HX  95
ELY              N/A     81  38  21 S23G30    30.08F
ELKO             N/A     86  24  10 W16G26    29.93F
POCATELLO, ID    N/A     88  34  14 W14       29.90F
BURLEY           N/A     83  35  18 VRB3      29.87F
EVANSTON, WY     N/A     78  37  22 SW22G33   30.15F
ROCK SPRINGS   PTSUNNY   78  33  19 SW13G23   30.11F
KEMMERER         N/A     79  27  14 SW18G32   30.15F

$$


USA.gov is the U.S. government's official web portal to all federal, state and local government web resources and services.